When you browse on this site, cookies collect data to enhance your experience and personalize the content and advertising you see.
Visit our Privacy Policy to learn more. By continuing to use the site, you agree to this use of cookies and data.
EN

Hourly Weather Ploskow

Today, 8 August, Saturday

Time Temperature Precipitation Wind Pressure Humidity
00:00 +20°C° 0 mm 2 mps 753 mmHg 83%
01:00 +20°C° 0 mm 2 mps 754 mmHg 85%
02:00 +20°C° 0 mm 2 mps 754 mmHg 86%
03:00 +19°C° 0 mm 2 mps 754 mmHg 88%
04:00 +19°C° 0 mm 2 mps 754 mmHg 90%
05:00 +19°C° 0 mm 2 mps 754 mmHg 92%
06:00 +20°C° 0 mm 2 mps 754 mmHg 87%
07:00 +21°C° 0 mm 3 mps 754 mmHg 83%
08:00 +24°C° 0 mm 3 mps 754 mmHg 78%
09:00 +25°C° 0 mm 3 mps 754 mmHg 72%
10:00 +27°C° 0 mm 3 mps 754 mmHg 65%
11:00 +28°C° 0 mm 3 mps 754 mmHg 59%
12:00 +29°C° 0 mm 3 mps 753 mmHg 56%
13:00 +30°C° 0 mm 2 mps 753 mmHg 52%
14:00 +30°C° 0 mm 2 mps 753 mmHg 49%
15:00 +30°C° 0 mm 2 mps 752 mmHg 49%
16:00 +30°C° 0 mm 2 mps 752 mmHg 49%
17:00 +30°C° 0 mm 1 mps 752 mmHg 49%
18:00 +29°C° 0 mm 2 mps 752 mmHg 55%
19:00 +27°C° 0 mm 2 mps 751 mmHg 61%
20:00 +25°C° 0 mm 2 mps 751 mmHg 67%
21:00 +25°C° 0 mm 2 mps 751 mmHg 70%
22:00 +24°C° 0 mm 2 mps 751 mmHg 74%
23:00 +23°C° 0 mm 2 mps 751 mmHg 78%

Tomorrow, 9 August, Sunday

Time Temperature Precipitation Wind Pressure Humidity
00:00 +22°C° 0 mm 1 mps 751 mmHg 80%
01:00 +22°C° 0 mm 1 mps 751 mmHg 83%
02:00 +21°C° 0 mm 1 mps 751 mmHg 86%
03:00 +21°C° 0.1 mm 1 mps 751 mmHg 87%
04:00 +20°C° 0.1 mm 1 mps 751 mmHg 89%
05:00 +20°C° 0.1 mm 1 mps 751 mmHg 91%
06:00 +21°C° 0 mm 1 mps 751 mmHg 86%
07:00 +23°C° 0 mm 1 mps 751 mmHg 82%
08:00 +24°C° 0 mm 1 mps 751 mmHg 77%
09:00 +25°C° 0.4 mm 1 mps 751 mmHg 71%
10:00 +27°C° 0.4 mm 1 mps 751 mmHg 65%
11:00 +28°C° 0.4 mm 1 mps 751 mmHg 59%
12:00 +28°C° 0.4 mm 1 mps 750 mmHg 58%
13:00 +29°C° 0.4 mm 2 mps 750 mmHg 56%
14:00 +29°C° 0.4 mm 2 mps 750 mmHg 55%
15:00 +28°C° 0.9 mm 2 mps 750 mmHg 58%
16:00 +28°C° 0.9 mm 2 mps 750 mmHg 62%
17:00 +27°C° 0.9 mm 3 mps 749 mmHg 65%
18:00 +26°C° 0.1 mm 2 mps 749 mmHg 71%
19:00 +24°C° 0.1 mm 2 mps 749 mmHg 77%
20:00 +23°C° 0.1 mm 2 mps 749 mmHg 82%
21:00 +21°C° 0.4 mm 2 mps 749 mmHg 84%
22:00 +20°C° 0.4 mm 2 mps 749 mmHg 85%
23:00 +20°C° 0.4 mm 2 mps 749 mmHg 86%

Day after tomorrow, 10 August, Monday

Time Temperature Precipitation Wind Pressure Humidity
00:00 +19°C° 0 mm 2 mps 749 mmHg 87%
01:00 +19°C° 0 mm 2 mps 749 mmHg 89%
02:00 +19°C° 0 mm 2 mps 749 mmHg 90%
03:00 +18°C° 0 mm 2 mps 749 mmHg 91%
04:00 +18°C° 0 mm 2 mps 749 mmHg 92%
05:00 +18°C° 0 mm 2 mps 749 mmHg 93%
06:00 +19°C° 0 mm 2 mps 749 mmHg 89%
07:00 +20°C° 0 mm 2 mps 749 mmHg 85%
08:00 +23°C° 0 mm 2 mps 749 mmHg 81%
09:00 +24°C° 0 mm 2 mps 749 mmHg 74%
10:00 +26°C° 0 mm 2 mps 749 mmHg 67%
11:00 +27°C° 0 mm 3 mps 749 mmHg 61%
12:00 +28°C° 0.1 mm 3 mps 749 mmHg 57%
13:00 +28°C° 0.1 mm 3 mps 749 mmHg 54%
14:00 +29°C° 0.1 mm 3 mps 749 mmHg 51%
15:00 +29°C° 0.2 mm 3 mps 749 mmHg 53%
16:00 +28°C° 0.2 mm 3 mps 749 mmHg 55%
17:00 +28°C° 0.2 mm 3 mps 748 mmHg 57%
18:00 +26°C° 0.4 mm 3 mps 748 mmHg 64%
19:00 +25°C° 0.4 mm 3 mps 748 mmHg 72%
20:00 +22°C° 0.4 mm 3 mps 748 mmHg 80%
21:00 +21°C° 0.2 mm 3 mps 749 mmHg 82%
22:00 +21°C° 0.2 mm 3 mps 749 mmHg 85%
23:00 +20°C° 0.2 mm 3 mps 749 mmHg 87%

11 August, Tuesday

Time Temperature Precipitation Wind Pressure Humidity
00:00 +19°C° 0 mm 3 mps 749 mmHg 89%
01:00 +19°C° 0 mm 3 mps 749 mmHg 90%
02:00 +18°C° 0 mm 3 mps 749 mmHg 92%
03:00 +18°C° 0 mm 3 mps 749 mmHg 93%
04:00 +18°C° 0 mm 3 mps 749 mmHg 93%
05:00 +17°C° 0 mm 3 mps 749 mmHg 94%
06:00 +18°C° 0 mm 3 mps 749 mmHg 89%
07:00 +19°C° 0 mm 3 mps 749 mmHg 83%
08:00 +20°C° 0 mm 3 mps 749 mmHg 78%
09:00 +22°C° 0 mm 4 mps 749 mmHg 70%
10:00 +23°C° 0 mm 4 mps 750 mmHg 63%
11:00 +25°C° 0 mm 5 mps 750 mmHg 56%
12:00 +26°C° 0 mm 5 mps 750 mmHg 53%
13:00 +26°C° 0 mm 5 mps 750 mmHg 50%
14:00 +26°C° 0 mm 5 mps 750 mmHg 47%
15:00 +26°C° 0 mm 5 mps 750 mmHg 50%
16:00 +26°C° 0 mm 5 mps 750 mmHg 53%
17:00 +26°C° 0 mm 5 mps 750 mmHg 56%
18:00 +23°C° 0 mm 5 mps 750 mmHg 60%
19:00 +21°C° 0 mm 4 mps 750 mmHg 65%
20:00 +19°C° 0 mm 4 mps 750 mmHg 69%
21:00 +18°C° 0 mm 3 mps 750 mmHg 71%
22:00 +17°C° 0 mm 3 mps 750 mmHg 74%
23:00 +16°C° 0 mm 3 mps 751 mmHg 76%

12 August, Wednesday

Time Temperature Precipitation Wind Pressure Humidity
00:00 +14°C° 0 mm 3 mps 751 mmHg 79%
01:00 +14°C° 0 mm 3 mps 751 mmHg 81%
02:00 +13°C° 0 mm 3 mps 751 mmHg 84%
03:00 +14°C° 0 mm 2 mps 751 mmHg 86%
04:00 +13°C° 0 mm 2 mps 751 mmHg 88%
05:00 +13°C° 0 mm 2 mps 751 mmHg 89%
06:00 +14°C° 0 mm 2 mps 751 mmHg 83%
07:00 +16°C° 0 mm 3 mps 751 mmHg 77%
08:00 +17°C° 0 mm 3 mps 752 mmHg 71%
09:00 +19°C° 0 mm 3 mps 752 mmHg 65%
10:00 +20°C° 0 mm 3 mps 752 mmHg 58%
11:00 +21°C° 0 mm 3 mps 752 mmHg 51%
12:00 +22°C° 0 mm 3 mps 752 mmHg 49%
13:00 +22°C° 0 mm 3 mps 752 mmHg 47%
14:00 +24°C° 0 mm 3 mps 752 mmHg 45%
15:00 +22°C° 0 mm 3 mps 752 mmHg 47%
16:00 +22°C° 0 mm 3 mps 751 mmHg 49%
17:00 +22°C° 0 mm 4 mps 751 mmHg 51%
18:00 +20°C° 0 mm 3 mps 751 mmHg 57%
19:00 +19°C° 0 mm 3 mps 751 mmHg 63%
20:00 +17°C° 0 mm 2 mps 751 mmHg 69%
21:00 +16°C° 0 mm 2 mps 752 mmHg 72%
22:00 +15°C° 0 mm 2 mps 752 mmHg 76%
23:00 +14°C° 0 mm 2 mps 752 mmHg 79%

13 August, Thursday

Time Temperature Precipitation Wind Pressure Humidity
00:00 +13°C° 0 mm 2 mps 752 mmHg 82%
01:00 +13°C° 0 mm 2 mps 752 mmHg 85%
02:00 +12°C° 0 mm 2 mps 752 mmHg 88%
03:00 +12°C° 0 mm 2 mps 752 mmHg 89%
04:00 +12°C° 0 mm 2 mps 752 mmHg 90%
05:00 +10°C° 0 mm 2 mps 751 mmHg 91%
06:00 +13°C° 0 mm 2 mps 752 mmHg 85%
07:00 +14°C° 0 mm 2 mps 752 mmHg 79%
08:00 +16°C° 0 mm 2 mps 752 mmHg 73%
09:00 +17°C° 0 mm 2 mps 752 mmHg 67%
10:00 +19°C° 0 mm 2 mps 751 mmHg 61%
11:00 +21°C° 0 mm 1 mps 751 mmHg 55%
12:00 +22°C° 0 mm 1 mps 751 mmHg 52%
13:00 +23°C° 0 mm 1 mps 751 mmHg 49%
14:00 +24°C° 0 mm 1 mps 751 mmHg 46%
15:00 +24°C° 0 mm 1 mps 750 mmHg 45%
16:00 +24°C° 0 mm 1 mps 750 mmHg 45%
17:00 +22°C° 0 mm 0 mps 750 mmHg 44%
18:00 +22°C° 0 mm 1 mps 750 mmHg 50%
19:00 +21°C° 0 mm 1 mps 750 mmHg 56%
20:00 +19°C° 0 mm 1 mps 750 mmHg 62%
21:00 +18°C° 0 mm 1 mps 750 mmHg 67%
22:00 +16°C° 0 mm 2 mps 750 mmHg 72%
23:00 +15°C° 0 mm 2 mps 750 mmHg 77%
Show more